Regional Weather Roundup
Issued by NWS Midland/Odessa, TX

Home | Current Version | Previous Version | Text Only | Print | Product List | Glossary On
Versions: 1 2 3 4 5 6 7 8 9 10 11 12 13 14 15 16 17 18 19 20 21 22 23 24 25 26 27 28 29 30 31 32 33 34 35 36 37 38 39 40 41 42 43 44 45 46 47 48 49 50
000
ASUS44 KMAF 131610
RWRMAF
MIDLAND AREA WEATHER ROUNDUP
NATIONAL WEATHER SERVICE MIDLAND TX
1000 AM CST WED DEC 13 2017

...IN SOUTHWEST TEXAS AND SOUTHEAST NEW MEXICO...

CITY           SKY/WX    TMP DP  RH WIND       PRES   REMARKS
ALPINE         MOSUNNY   52  23  32 S13       30.22R
ANDREWS        FAIR      52  22  31 W9        30.10S
ARTESIA        SUNNY     37   9  30 CALM      30.10F
BIG SPRING     SUNNY     44  26  49 S10       30.13S WCI  38
CARLSBAD       SUNNY     39  21  48 N7        30.10S WCI  34
DRYDEN           N/A     54  27  35 SW7       30.16S
FORT STOCKTON  NOT AVBL
GUAD PASS      SUNNY     38  13  35 SW22G29   30.15R WCI  27
HOBBS          SUNNY     46  16  29 SW3       30.10R
LAMESA         FAIR      43  21  42 W12       30.10R WCI  37
MARFA          NOT AVBL
MIDLAND AIRPK  SUNNY     50  25  37 SW12      30.12S
MIDLAND INTL   SUNNY     47  26  44 SW8       30.12R
ODESSA         SUNNY     48  27  44 SW9       30.12R
PECOS          SUNNY     47  29  51 S3        30.13S
PRESIDIO       FAIR      49  29  45 SW6       30.23R
SEMINOLE       SUNNY     44  22  40 W7        30.11S
SNYDER         SUNNY     43  23  45 SW13      30.09S WCI  36
WINK           SUNNY     39  28  64 CALM      30.12R
$$
...OTHER STATIONS IN TEXAS...

CITY           SKY/WX    TMP DP  RH WIND       PRES   REMARKS
ABILENE        SUNNY     53  23  31 SW12      30.08R
AMARILLO       SUNNY     46  12  25 NW13      30.06R
AUSTIN         CLOUDY    48  35  60 SW5       30.18S
BROWNSVILLE    MOSUNNY   60  43  53 VRB3      30.22F
CORPUS CHRISTI CLOUDY    58  42  55 E3        30.21F
DALLAS FTW     MOSUNNY   54  26  34 SW10      30.04S
DEL RIO        CLOUDY    44  37  76 CALM      30.18S
EL PASO        MOSUNNY   39  11  31 N8        30.19R WCI  33
HOUSTON INT    CLOUDY    50  34  54 W3        30.20R
LUBBOCK        SUNNY     46  12  25 W12       30.04S
SAN ANGELO     SUNNY     47  26  44 SW8       30.13S
SAN ANTONIO    CLOUDY    50  30  46 SW6       30.19F
WACO           SUNNY     50  30  46 SW8       30.12F
WICHITA FALLS  PTSUNNY   56  23  27 NW15      29.91R
$$
...OTHER LOCATIONS IN NEW MEXICO...

CITY           SKY/WX    TMP DP  RH WIND       PRES   REMARKS
ALAMOGORDO     SUNNY     37  12  35 CALM      30.19S
ALBUQUERQUE    CLOUDY    34   6  31 N5        30.21S WCI  30
CANNON AFB     SUNNY     46   9  22 NW12      30.07R
CLOVIS         SUNNY     48  12  23 NW12      30.07R
HOLLOMAN AFB   CLOUDY    35  12  39 CALM      30.21S
ROSWELL        SUNNY     37   9  31 CALM      30.09S
RUIDOSO        SUNNY     46  -2  13 W8        30.19R
SANTA FE       CLOUDY    31   6  35 N14       30.20R WCI  21
TRUTH OR CONSE SUNNY     40   5  23 N6        30.20S WCI  36
TUCUMCARI      SUNNY     47  12  24 NW6       30.08R
$$




USA.gov is the U.S. government's official web portal to all federal, state and local government web resources and services.